Location: Unspecified
(39.3295°N, 0.0000°E)
Time: 22:39:43
(UTC+00:00)

Transit 2A - Visible Passes

Search period start: 04 April 2026 00:00
Search period end: 14 April 2026 00:00
Orbit: 591 x 953 km, 66.7° (Epoch: 29 March)

Date Brightness Start Highest point End Pass type
(mag) Time Alt. Az. Time Alt. Az. Time Alt. Az.
4 Apr 8.1 01:30:35 29° NE 01:30:35 29° NE 01:33:22 10° NNE visible
4 Apr 7.9 03:10:54 22° NW 03:10:54 22° NW 03:15:32 10° N visible
5 Apr 8.6 00:55:04 20° NE 00:55:04 20° NE 00:56:50 10° NE visible
5 Apr 7.8 02:35:23 28° NNW 02:35:23 28° NNW 02:39:32 10° N visible
6 Apr 8.9 00:19:30 13° NE 00:19:30 13° NE 00:20:08 10° NE visible
6 Apr 7.8 01:59:49 31° N 01:59:49 31° N 02:03:23 10° NNE visible
7 Apr 8.1 01:24:14 29° N 01:24:14 29° N 01:27:08 10° NNE visible
7 Apr 8.5 03:04:33 13° NW 03:05:21 13° NW 03:08:07 10° NNW visible
8 Apr 8.4 00:48:36 24° NNE 00:48:36 24° NNE 00:50:48 10° NNE visible
8 Apr 8.3 02:28:54 18° NW 02:28:54 18° NW 02:32:33 10° N visible
9 Apr 8.7 00:12:56 18° NE 00:12:56 18° NE 00:14:20 10° NE visible
9 Apr 8.2 01:53:14 22° NNW 01:53:14 22° NNW 01:56:39 10° N visible
9 Apr 8.9 23:37:13 13° NE 23:37:13 13° NE 23:37:45 10° NE visible
10 Apr 8.2 01:17:31 25° NNW 01:17:31 25° NNW 01:20:35 10° NNE visible
11 Apr 8.3 00:41:46 25° N 00:41:46 25° N 00:44:25 10° NNE visible
11 Apr 8.8 02:22:05 10° NW 02:23:06 10° NW 02:24:06 10° NNW visible
12 Apr 8.4 00:05:58 23° NNE 00:05:58 23° NNE 00:08:08 10° NNE visible
12 Apr 8.6 01:46:16 14° NW 01:46:16 14° NW 01:49:22 10° N visible
12 Apr 8.5 23:30:07 19° NNE 23:30:07 19° NNE 23:31:45 10° NNE visible
13 Apr 8.5 01:10:25 19° NNW 01:10:25 19° NNW 01:13:40 10° N visible
13 Apr 8.6 22:54:13 15° NE 22:54:13 15° NE 22:55:15 10° NE visible
